Вернуться в каталог

COSMOS 1275 DEB

АктивенPO
NORAD 39935·DEBRIS·🇷🇺 Russia

Запущен Jun 4, 1981 с Plesetsk Cosmodrome

Loading…

Ближайшие Пролёты (ближайшие 24 часа)

TLE

УстаревающийSource: Space-Track

Эпоха: Sep 9, 2026, 19:11 UTC

1 39935U 81053MV  26252.79952271  .00000602  00000-0  41345-3 0  9993
2 39935  82.8212  92.9525 0034040 253.9387 120.4421 13.97726387623901

Отслеживайте COSMOS 1275 DEB в реальном времени с AllMySat

Download on the App Store